Date String (YYYY-MM-DD hh:mm:ss) UTC,Instrument flags,Ambient pressure (hPa),Sample flow (lpm),Bypass flow (lpm),Sample temperature (°C),Ambient temperature (°C),ASC tube jacket temperature (°C),LED temperature (°C),Box temperature (°C),Sample RH (%),Span deviation,Mass concentration (μg/m³),Mass concentration (μg/m³),Mass concentration (μg/m³)
DateTimeUTC,F1_M11,P_M11,Q1_M11,Q2_M11,T1_M11,T2_M11,T3_M11,T4_M11,T5_M11,U1_M11,ZSPAN_M11,X0_M11,X2_M11,X1_M11
2023-01-17 00:00:00,,0812.9,5.00,0.00,23.8,22.5,00.0,32.6,25.6,14.8,-001.2,0022.98,0011.50,0010.19
2023-01-17 00:01:00,,0812.9,4.99,0.00,23.8,22.5,00.0,32.6,25.6,14.8,-001.4,0023.02,0011.53,0010.24
2023-01-17 00:02:00,,0813.3,5.00,0.00,23.8,22.4,00.0,32.6,25.6,14.9,-002.1,0023.28,0011.58,0010.29
2023-01-17 00:03:00,,0813.2,5.02,0.00,23.8,22.4,00.0,32.6,25.5,15.0,-002.2,0023.59,0011.70,0010.34
2023-01-17 00:04:00,,0813.2,5.00,0.00,23.8,22.2,00.0,32.6,25.5,14.9,-002.4,0024.34,0011.76,0010.38
2023-01-17 00:05:00,,0813.1,5.01,0.00,23.7,22.1,00.0,32.6,25.5,14.8,-002.3,0023.65,0011.78,0010.40
2023-01-17 00:06:00,,0813.1,4.98,0.00,23.7,22.1,00.0,32.6,25.5,14.9,-002.7,0022.70,0011.80,0010.46
2023-01-17 00:07:00,,0812.9,5.03,0.00,23.7,22.2,00.0,32.6,25.5,15.0,-003.1,0023.03,0011.90,0010.55
2023-01-17 00:08:00,,0812.9,5.03,0.00,23.7,22.2,00.0,32.6,25.5,15.0,-003.1,0023.05,0011.95,0010.64
2023-01-17 00:09:00,,0812.9,5.02,0.00,23.7,22.2,00.0,32.6,25.5,15.1,-003.1,0021.78,0011.97,0010.72
2023-01-17 00:10:00,,0813.0,5.00,0.00,23.7,22.1,00.0,32.6,25.4,15.2,-002.8,0021.18,0012.05,0010.80
2023-01-17 00:11:00,,0813.1,4.99,0.00,23.6,22.0,00.0,32.6,25.3,15.2,-002.3,0021.42,0012.12,0010.88
2023-01-17 00:12:00,,0813.0,5.00,0.00,23.6,22.0,00.0,32.6,25.3,15.2,-001.9,0022.16,0012.18,0010.96
2023-01-17 00:13:00,,0812.9,5.00,0.00,23.6,22.0,00.0,32.5,25.3,15.1,-001.3,0021.84,0012.20,0010.98
2023-01-17 00:14:00,,0812.9,5.00,0.00,23.6,22.1,00.0,32.5,25.3,15.0,-001.2,0021.68,0012.12,0010.95
2023-01-17 00:15:00,,0812.9,5.01,0.00,23.6,22.1,00.0,32.5,25.3,15.0,-001.2,0021.53,0012.06,0010.95
2023-01-17 00:16:00,,0812.8,4.99,0.00,23.6,22.1,00.0,32.5,25.3,14.9,-001.4,0020.61,0012.04,0010.97
2023-01-17 00:17:00,,0812.8,5.00,0.00,23.6,22.1,00.0,32.5,25.3,15.0,-001.5,0021.12,0012.09,0010.97
2023-01-17 00:18:00,,0812.9,5.01,0.00,23.6,22.2,00.0,32.5,25.3,15.1,-001.5,0021.88,0012.10,0010.96
2023-01-17 00:19:00,,0812.9,5.00,0.00,23.6,22.2,00.0,32.5,25.3,14.9,-001.6,0022.37,0012.03,0010.90
2023-01-17 00:20:00,,0812.9,5.01,0.00,23.6,22.2,00.0,32.5,25.4,14.6,-001.4,0022.67,0012.03,0010.83
2023-01-17 00:21:00,,0812.9,4.99,0.00,23.6,22.2,00.0,32.5,25.4,14.0,-001.6,0022.51,0011.90,0010.70
2023-01-17 00:22:00,,0812.8,5.00,0.00,23.6,22.2,00.0,32.5,25.4,13.7,-001.8,0022.10,0011.69,0010.51
2023-01-17 00:23:00,,0812.8,4.99,0.00,23.6,22.3,00.0,32.5,25.4,13.4,-001.9,0021.02,0011.49,0010.32
2023-01-17 00:24:00,,0812.9,5.00,0.00,23.6,22.3,00.0,32.5,25.4,13.3,-001.8,0020.86,0011.33,0010.15
2023-01-17 00:25:00,,0812.9,5.00,0.00,23.6,22.3,00.0,32.5,25.4,13.7,-001.7,0020.66,0011.25,0010.08
2023-01-17 00:26:00,,0812.8,5.00,0.00,23.6,22.3,00.0,32.5,25.4,13.6,-001.8,0020.00,0011.19,0010.00
2023-01-17 00:27:00,,0812.8,5.01,0.00,23.6,22.3,00.0,32.5,25.4,13.3,-001.8,0019.61,0011.04,0009.87
2023-01-17 00:28:00,,0812.9,5.00,0.00,23.6,22.3,00.0,32.5,25.5,13.0,-001.4,0019.36,0010.85,0009.71
2023-01-17 00:29:00,,0812.9,5.00,0.00,23.6,22.3,00.0,32.5,25.5,13.0,-001.0,0017.74,0010.62,0009.55
2023-01-17 00:30:00,,0812.8,5.00,0.00,23.6,22.3,00.0,32.5,25.5,13.3,-000.6,0016.86,0010.47,0009.43
2023-01-17 00:31:00,,0813.2,5.01,0.00,23.7,22.3,00.0,32.5,25.5,14.1,-000.3,0016.73,0010.41,0009.41
2023-01-17 00:32:00,,0813.0,5.05,0.00,23.6,22.2,00.0,32.5,25.4,14.7,-000.0,0018.33,0010.56,0009.51
2023-01-17 00:33:00,,0813.0,5.03,0.00,23.6,22.2,00.0,32.5,25.4,14.8,-000.1,0018.34,0010.75,0009.68
2023-01-17 00:34:00,,0813.3,5.02,0.00,23.6,22.2,00.0,32.5,25.4,14.8,-000.1,0018.64,0010.93,0009.82
2023-01-17 00:35:00,,0812.9,4.99,0.00,23.6,22.1,00.0,32.5,25.4,14.8,0000.2,0019.11,0011.04,0009.96
2023-01-17 00:36:00,,0813.2,5.00,0.00,23.6,22.1,00.0,32.5,25.3,14.8,0000.4,0020.12,0011.10,0010.02
2023-01-17 00:37:00,,0813.2,5.00,0.00,23.6,22.2,00.0,32.5,25.3,14.5,0000.3,0020.00,0011.11,0010.05
2023-01-17 00:38:00,,0813.1,4.99,0.00,23.6,22.2,00.0,32.5,25.4,14.4,0000.2,0020.12,0011.24,0010.12
2023-01-17 00:39:00,,0813.1,4.99,0.00,23.6,22.2,00.0,32.5,25.4,14.5,-000.1,0020.32,0011.38,0010.22
2023-01-17 00:40:00,,0813.1,5.00,0.00,23.6,22.2,00.0,32.5,25.4,14.9,-000.4,0022.34,0011.57,0010.36
2023-01-17 00:41:00,,0813.1,5.00,0.00,23.6,22.2,00.0,32.5,25.4,15.0,-000.5,0023.13,0011.71,0010.45
2023-01-17 00:42:00,,0813.1,5.00,0.00,23.6,22.2,00.0,32.5,25.4,15.0,-000.8,0023.01,0011.72,0010.44
2023-01-17 00:43:00,,0813.1,4.99,0.00,23.6,22.2,00.0,32.5,25.3,14.8,-001.1,0021.67,0011.67,0010.38
2023-01-17 00:44:00,,0813.2,5.00,0.00,23.6,22.2,00.0,32.4,25.3,14.5,-001.4,0021.62,0011.61,0010.32
2023-01-17 00:45:00,,0813.2,4.99,0.00,23.6,22.2,00.0,32.4,25.3,14.3,-001.7,0021.99,0011.58,0010.27
2023-01-17 00:46:00,,0813.2,5.01,0.00,23.6,22.2,00.0,32.4,25.3,14.0,-001.9,0021.35,0011.47,0010.18
2023-01-17 00:47:00,,0813.3,5.04,0.00,23.5,22.1,00.0,32.4,25.2,13.7,-002.2,0020.29,0011.37,0010.13
2023-01-17 00:48:00,,0813.3,5.00,0.00,23.5,22.0,00.0,32.4,25.2,13.6,-002.3,0020.23,0011.30,0010.07
2023-01-17 00:49:00,,0813.3,5.00,0.00,23.5,21.9,00.0,32.4,25.2,13.6,-002.7,0020.41,0011.15,0010.00
2023-01-17 00:50:00,,0813.3,5.00,0.00,23.5,21.8,00.0,32.4,25.1,13.4,-002.7,0019.60,0010.98,0009.91
2023-01-17 00:51:00,,0813.2,4.99,0.00,23.4,21.7,00.0,32.4,25.1,13.1,-002.7,0017.53,0010.75,0009.74
2023-01-17 00:52:00,,0813.2,4.99,0.00,23.4,21.7,00.0,32.4,25.1,13.2,-002.4,0017.10,0010.61,0009.60
2023-01-17 00:53:00,,0813.2,5.02,0.00,23.4,21.8,00.0,32.4,25.1,12.9,-002.1,0016.91,0010.41,0009.45
2023-01-17 00:54:00,,0813.2,5.00,0.00,23.4,21.8,00.0,32.4,25.1,12.9,-001.7,0016.48,0010.19,0009.29
2023-01-17 00:55:00,,0813.2,5.00,0.00,23.4,21.9,00.0,32.3,25.0,13.0,-001.0,0016.64,0009.98,0009.15
2023-01-17 00:56:00,,0813.2,5.00,0.00,23.4,21.9,00.0,32.3,25.0,13.2,-001.0,0017.17,0009.83,0009.04
2023-01-17 00:57:00,,0813.2,4.99,0.00,23.3,21.9,00.0,32.3,25.1,13.2,-001.3,0017.18,0009.80,0008.98
2023-01-17 00:58:00,,0813.2,5.01,0.00,23.3,21.9,00.0,32.3,25.1,13.5,-001.3,0017.24,0009.78,0008.94
2023-01-17 00:59:00,,0813.2,5.00,0.00,23.3,21.9,00.0,32.3,25.0,13.8,-001.4,0017.44,0009.83,0008.98
